Location: 22
(39.7117°N, 89.5929°W)
Time: 07:36:05
(UTC-05:00)

ISS - Pass Details

Date: 27 September 2021
Orbit: 417 x 423 km, 51.6° (Epoch: 16 October)

Event Time Altitude Azimuth Distance (km) Brightness Sun altitude
Rises 19:18:31 0° 303° (WNW) 2,362 1.2 -6.9°
Reaches altitude 10° 19:22:03 10° 343° (NNW) 1,500 -0.7 -7.6°
Maximum altitude 19:23:00 11° 359° (N) 1,448 -1.0 -7.8°
Drops below altitude 10° 19:23:56 10° 15° (NNE) 1,501 -1.1 -8.0°
Enters shadow 19:26:28 - 47° (NE) 2,050 -0.7 -8.5°
